Regional Weather Roundup
Issued by NWS

Home | Current Version | Previous Version | Text Only | Print | Product List | Glossary On
Versions: 1 2 3 4 5 6 7 8 9 10 11 12 13 14 15 16 17 18 19 20 21 22 23 24 25 26 27
000
ASUS44 KBMX 231710
RWRAL

ALABAMA REGIONAL WEATHER ROUNDUP
NATIONAL WEATHER SERVICE BIRMINGHAM AL
1200 PM CDT TUE MAY 23 2017

NOTE: "FAIR" INDICATES FEW OR NO CLOUDS BELOW 12,000 FEET
WITH NO SIGNIFICANT WEATHER AND/OR OBSTRUCTIONS TO VISIBILITY.

THE REMARK "TC" DENOTES TEMPERATURE IN DEGREES CELSIUS.

ALZ001>011-014-016>018-020-231800-
NORTH ALABAMA

CITY           SKY/WX    TMP DP  RH WIND       PRES   REMARKS
MUSCLE SHOALS  CLOUDY    74  62  66 VRB6      29.77F
HUNTSVILLE     PTSUNNY   74  65  73 SW8       29.75F
DECATUR        MOSUNNY   74  64  71 VRB5      29.76F
HALEYVILLE     CLOUDY    71  64  78 CALM      29.79F
GADSDEN        PTSUNNY   74  67  78 S6        29.76F
$$

ALZ012-013-022-023-030>036-040>044-231800-
WEST CENTRAL ALABAMA

CITY           SKY/WX    TMP DP  RH WIND       PRES   REMARKS
TUSCALOOSA     CLOUDY    72  69  90 NW3       29.76F
$$

ALZ015-024>027-033>036-040>044-231800-
CENTRAL ALABAMA

CITY           SKY/WX    TMP DP  RH WIND       PRES   REMARKS
BIRMINGHAM     CLOUDY    73  66  78 S6        29.78F
MONTGOMERY     CLOUDY    71  65  81 E7        29.74F
SHELBY CO ARPT CLOUDY    72  69  90 CALM      29.75F
MAXWELL AFB    NOT AVBL
GREENVILLE     HVY RAIN  67  63  87 S5        29.74F FOG
$$

ALZ019-021-028-029-037-038-045>048-231800-
EAST CENTRAL ALABAMA

CITY           SKY/WX    TMP DP  RH WIND       PRES   REMARKS
ANNISTON       CLOUDY    68  64  87 CALM      29.77F
ALEXANDER CITY CLOUDY    68  67  96 S3        29.77F
AUBURN         CLOUDY    67  65  93 S5        29.78F
$$

ALZ051>064-231800-
SOUTHWEST ALABAMA

CITY           SKY/WX    TMP DP  RH WIND       PRES   REMARKS
MOBILE         PTSUNNY   78  71  79 SW9       29.76F
BROOKLEY FIELD PTSUNNY   75  74  96 VRB5      29.77F
EVERGREEN      CLOUDY    70  67  90 CALM      29.75F
$$

ALZ049-050-065>069-231800-
SOUTHEAST ALABAMA

CITY           SKY/WX    TMP DP  RH WIND       PRES   REMARKS
DOTHAN         CLOUDY    74  71  91 NE9       29.81F
OZARK          NOT AVBL
TROY           RAIN      66  66 100 NW6       29.78F FOG
EUFAULA        PTSUNNY   72  68  87 VRB5      29.75F
$$




USA.gov is the U.S. government's official web portal to all federal, state and local government web resources and services.